Malaga, Spain

1:22 PM CEST on September 21, 2017 (GMT +0200)
Malaga

Weather History for LEMG - March, 2013

Change the Weather History Date:

Monday, March 18, 2013

  Actual Average Record
Temperature  
Mean Temperature 61 °F -  
Max Temperature 71 °F 67 °F 71 °F (1998)
Min Temperature 51 °F 50 °F 42 °F (2001)
Degree Days  
Heating Degree Days 4    
Growing Degree Days 11 (Base 50)    
Moisture  
Dew Point 43 °F    
Average Humidity 59    
Maximum Humidity 100    
Minimum Humidity 11    
Precipitation  
Precipitation 0.00 in 0.06 in - ()
Sea Level Pressure  
Sea Level Pressure 29.76 in    
Wind  
Wind Speed 6 mph ()    
Max Wind Speed 16 mph    
Max Gust Speed -    
Visibility 6.4 miles    
Events      
Averages and records for this station are not official NWS values.
T = Trace of Precipitation, MM = Missing Value Source: Averaged Metar Reports

Daily Weather History Graph

Daily Weather History Graph

Search for Another Location

Airport or City:

Trip Planner

Search our weather history database for the weather conditions in past years. The results will help you decide how hot, cold, wet, or windy it might be!

Date:

Astronomy

Mar. 18, 2013 Rise Set
Actual Time 7:24 AM CET 7:27 PM CET
Civil Twilight 6:58 AM CET 7:53 PM CET
Nautical Twilight 6:28 AM CET 8:23 PM CET
Astronomical Twilight 5:58 AM CET 8:54 PM CET
Moon 11:21 AM CET (3/18) 1:06 AM CET (3/18)
Length of Visible Light 12h 55m
Length of Day
12h 03m
Waxing Crescent, 38% of the Moon is Illuminated
Mar 18
Waxing Crescent
Mar 19
First Quarter
Mar 27
Full
Apr 3
Last Quarter
Apr 10
New

Hourly Weather History & Observations

Time (CET) Temp. Dew Point Humidity Pressure Visibility Wind Dir Wind Speed Gust Speed Precip Events Conditions
12:00 AM 55.4 °F 55.4 °F 100% 29.65 in 6.2 mi Calm Calm - N/A   Scattered Clouds
12:30 AM 55.4 °F 53.6 °F 94% 29.65 in 6.2 mi NW 1.2 mph - N/A   Mostly Cloudy
1:00 AM 57 °F 55 °F 92% 29.68 in 7 mi WNW 6.9 mph - -   Partly Cloudy
1:00 AM 55.4 °F 55.4 °F 100% 29.65 in 6.2 mi WNW 6.9 mph - N/A   Mostly Cloudy
1:30 AM 57.2 °F 55.4 °F 94% 29.65 in 6.2 mi WNW 4.6 mph - N/A   Mostly Cloudy
2:00 AM 55.4 °F 55.4 °F 100% 29.65 in 6.2 mi WNW 3.5 mph - N/A   Mostly Cloudy
2:30 AM 55.4 °F 53.6 °F 94% 29.68 in 6.2 mi Variable 2.3 mph - N/A   Mostly Cloudy
3:00 AM 55.4 °F 55.4 °F 100% 29.68 in 6.2 mi West 6.9 mph - N/A   Mostly Cloudy
3:30 AM 55.4 °F 55.4 °F 100% 29.68 in 6.2 mi West 5.8 mph - N/A   Mostly Cloudy
4:00 AM 53.6 °F 53.6 °F 100% 29.68 in 6.2 mi WNW 5.8 mph - N/A   Scattered Clouds
4:30 AM 55.4 °F 55.4 °F 100% 29.68 in 6.2 mi WSW 5.8 mph - N/A   Scattered Clouds
5:00 AM 57.2 °F 55.4 °F 94% 29.68 in 6.2 mi WSW 6.9 mph - N/A   Scattered Clouds
6:00 AM 57.2 °F 53.6 °F 88% 29.71 in 6.2 mi WSW 3.5 mph - N/A   Scattered Clouds
6:30 AM 57.2 °F 53.6 °F 88% 29.74 in 6.2 mi West 4.6 mph - N/A   Scattered Clouds
7:00 AM 58 °F 51 °F 71% 29.76 in 9 mi WNW 4.6 mph - -   Partly Cloudy
7:00 AM 57.2 °F 51.8 °F 82% 29.74 in 6.2 mi WNW 4.6 mph - N/A   Scattered Clouds
7:30 AM 57.2 °F 51.8 °F 82% 29.74 in 6.2 mi West 8.1 mph - N/A   Partly Cloudy
8:00 AM 57.2 °F 50.0 °F 77% 29.77 in 6.2 mi West 8.1 mph - N/A   Partly Cloudy
8:30 AM 57.2 °F 50.0 °F 77% 29.80 in 6.2 mi West 11.5 mph - N/A   Partly Cloudy
9:00 AM 57.2 °F 50.0 °F 77% 29.80 in 6.2 mi West 12.7 mph - N/A   Partly Cloudy
9:30 AM 59.0 °F 46.4 °F 63% 29.80 in 6.2 mi West 10.4 mph - N/A   Partly Cloudy
10:00 AM 59.0 °F 46.4 °F 63% 29.83 in - WNW 16.1 mph - N/A   Clear
10:30 AM 60.8 °F 44.6 °F 55% 29.83 in - WNW 8.1 mph - N/A   Clear
11:00 AM 62.6 °F 42.8 °F 48% 29.80 in - WNW 10.4 mph - N/A   Clear
11:30 AM 64.4 °F 42.8 °F 45% 29.80 in - WNW 8.1 mph - N/A   Clear
12:00 PM 66.2 °F 37.4 °F 35% 29.83 in - WNW 8.1 mph - N/A   Clear
12:30 PM 66.2 °F 33.8 °F 30% 29.80 in - WNW 6.9 mph - N/A   Clear
1:00 PM 68 °F 26 °F 11% 29.82 in 25 mi WNW 11.5 mph - -  
1:00 PM 68.0 °F 32.0 °F 26% 29.80 in - WNW 11.5 mph - N/A   Clear
1:30 PM 68.0 °F 35.6 °F 30% 29.80 in - WNW 10.4 mph - N/A   Clear
2:00 PM 68.0 °F 37.4 °F 33% 29.80 in - NW 10.4 mph - N/A   Clear
2:30 PM 69.8 °F 37.4 °F 31% 29.80 in - WNW 9.2 mph - N/A   Clear
3:00 PM 69.8 °F 35.6 °F 28% 29.77 in - WNW 9.2 mph - N/A   Clear
3:30 PM 69.8 °F 33.8 °F 27% 29.77 in - NW 8.1 mph - N/A   Clear
4:00 PM 69.8 °F 32.0 °F 25% 29.77 in - NNW 12.7 mph - N/A   Clear
4:30 PM 69.8 °F 32.0 °F 25% 29.77 in - NNW 11.5 mph - N/A   Clear
5:00 PM 69.8 °F 33.8 °F 27% 29.77 in - NW 8.1 mph - N/A   Clear
5:30 PM 69.8 °F 32.0 °F 25% 29.77 in - NW 9.2 mph - N/A   Clear
6:00 PM 68.0 °F 33.8 °F 28% 29.77 in - NW 8.1 mph - N/A   Clear
6:30 PM 66.2 °F 33.8 °F 30% 29.77 in - NW 10.4 mph - N/A   Clear
7:00 PM 68 °F 28 °F 12% 29.78 in 25 mi NW 9.2 mph - -  
7:00 PM 66.2 °F 33.8 °F 30% 29.77 in - NW 9.2 mph - N/A   Clear
7:30 PM 62.6 °F 33.8 °F 34% 29.77 in - West 8.1 mph - N/A   Clear
8:00 PM 60.8 °F 35.6 °F 39% 29.77 in - West 6.9 mph - N/A   Clear
8:30 PM 59.0 °F 37.4 °F 45% 29.80 in - West 5.8 mph - N/A   Clear
9:00 PM 60.8 °F 37.4 °F 42% 29.80 in - West 9.2 mph - N/A   Clear
9:30 PM 59.0 °F 35.6 °F 42% 29.80 in - West 8.1 mph - N/A   Clear
10:00 PM 53.6 °F 41.0 °F 62% 29.80 in - WNW 5.8 mph - N/A   Clear
10:30 PM 51.8 °F 41.0 °F 67% 29.80 in - WNW 8.1 mph - N/A   Clear
11:00 PM 53.6 °F 41.0 °F 62% 29.80 in - NW 6.9 mph - N/A   Clear
11:30 PM 51.8 °F 41.0 °F 67% 29.77 in - NW 5.8 mph - N/A   Clear